sat.trackr.live / text

‹ back to catalog

STARLINK-5096

NORAD 54006 · 2022-125AU

PAYLOAD ACTIVE UNKNOWN

§ Identity

Operator
Country
US
Launch date
2022-10-05
Launch site
AFWTR
Launch vehicle
Mass (kg)
RCS (m²)

Purposes: comms

External: N2YO · Heavens-Above · Gunter

§ Orbital elements

Epoch: 2026-05-25T05:30:49.181760Z

Period
95.44 min
Inclination
53.2143°
Eccentricity
0.0001185
Mean motion
15.08838967 rev/d
Perigee alt
538.9 km
Apogee alt
540.6 km
Semi-major
6,917.9 km
B*
2.5964e-5
RAAN
230.0918°
Arg perigee
85.9710°
Mean anomaly
274.1418°
Rev number
20,101

§ Raw data

STARLINK-50961 54006U 22125AU  26145.22973590  .00000125  00000+0  25964-4 0  99992 54006  53.2143 230.0918 0001185  85.9710 274.1418 15.08838967201019

JSON: /api/v1/satellites/54006 · /tle

For live sub-satellite position, see the globe view (requires WebGL).

§ Visibility from observer

Set your observer location to see the next 7 days of passes ≥ 10°. The values pass through the URL so the page stays shareable.

No JS? Fill the form by hand. The geolocation button needs JavaScript.